Home > Weather > L'viv > Past weeks

Flag for Ukraine Past Weather in L'viv, Ukraine — Yesterday and Last 2 Weeks

Now
70 °F

Partly sunny.


Feels Like: 70 °F
Forecast: 59 / 76 °F
Wind: 1 mph from Southeast

Location: L'Viv Airport

Current Time: May 31, 2016 at 10:49:33 AM

Latest Report: May 31, 2016 at 10:30 AM


Visibility: N/A

Pressure: 29.83 "Hg

Humidity: 69%

Dew Point: 59 °F

Location of L'vivLocation

Past Weather in L'viv — Graph

°F

L'viv Temperature Yesterday

Maximum temperature yesterday: 82 °F (at 3:30 PM)
Minimum temperature yesterday: 57 °F (at 5:00 AM)
Average temperature yesterday: 71 °F

High & Low Weather Summary for the Past Weeks

 TemperatureHumidityPressure
High82 °F (May 30, 3:30 PM)100% (May 17, 11:30 PM)30.09 "Hg (May 17, 11:30 PM)
Low34 °F (May 19, 4:00 AM)29% (May 24, 5:00 PM)29.68 "Hg (May 24, 3:30 PM)
Average59 °F68%29.94 "Hg
* Reported May 16 9:00 AM — May 31 9:30 AM, L'viv, Weather by CustomWeather, © 2016

Note: Actual official high and low records may vary slightly from our data, if they occured in-between our weather recording intervals... More about our weather records

Advertising

L'viv Weather History for the Previous 24 Hours

Scroll right to see more
 ConditionsComfort  
Time TempWeatherWind HumidityBarometerVisibility
9:30 AM
Tue, May 31
68 °FBroken clouds.1 mph73%29.83 "HgN/A
9:00 AM66 °FBroken clouds.No wind78%29.83 "HgN/A
8:30 AM66 °FBroken clouds.No wind83%29.83 "HgN/A
8:00 AM66 °FBroken clouds.No wind78%29.83 "HgN/A
7:30 AM64 °FSunny.1 mph83%29.83 "Hg10 mi
7:00 AM63 °FPassing clouds.3 mph88%29.83 "HgN/A
6:30 AM63 °FBroken clouds.1 mph88%29.83 "HgN/A
6:00 AM61 °FPartly cloudy.3 mph94%29.80 "HgN/A
5:30 AM61 °FPartly cloudy.No wind94%29.80 "HgN/A
5:00 AM61 °FPartly cloudy.No wind94%29.80 "HgN/A
4:30 AM61 °FSprinkles. Partly cloudy.1 mph94%29.83 "Hg6 mi
4:00 AM61 °FSprinkles. Partly cloudy.6 mph94%29.83 "HgN/A
3:30 AM61 °FSprinkles. Partly cloudy.3 mph94%29.83 "Hg5 mi
3:00 AM63 °FThundershowers. Partly cloudy.6 mph94%29.83 "Hg5 mi
2:30 AM63 °FThundershowers. Partly cloudy.1 mph94%29.83 "Hg3 mi
2:00 AM63 °FThundershowers. Partly cloudy.3 mph94%29.83 "Hg4 mi
1:30 AM63 °FThundershowers. Partly cloudy.6 mph88%29.83 "Hg6 mi
1:00 AM63 °FThundershowers. Partly cloudy.3 mph83%29.80 "HgN/A
12:30 AM64 °FThundershowers. Partly cloudy.13 mph83%29.83 "HgN/A
12:00 AM66 °FThundershowers. Partly cloudy.6 mph83%29.80 "HgN/A
11:50 PM
Mon, May 30
66 °FThundershowers. Partly cloudy.6 mph83%29.80 "HgN/A
11:30 PM66 °FThundershowers. Partly cloudy.1 mph83%29.80 "HgN/A
11:00 PM64 °FPartly cloudy.No wind94%29.80 "HgN/A
10:30 PM64 °FPartly cloudy.No wind94%29.80 "HgN/A
10:00 PM64 °FThundershowers. Broken clouds.6 mph88%29.80 "HgN/A
9:30 PM64 °FThundershowers. Broken clouds.6 mph88%29.80 "HgN/A
9:00 PM68 °FThundershowers. Broken clouds.8 mph73%29.80 "HgN/A
8:30 PM70 °FThundershowers. Broken clouds.10 mph64%29.80 "HgN/A
8:00 PM72 °FBroken clouds.8 mph61%29.80 "HgN/A
7:30 PM77 °FBroken clouds.6 mph51%29.80 "HgN/A
7:00 PM77 °FBroken clouds.6 mph47%29.77 "HgN/A
6:30 PM79 °FBroken clouds.6 mph42%29.77 "HgN/A
6:00 PM81 °FBroken clouds.8 mph39%29.77 "HgN/A
5:30 PM81 °FScattered clouds.8 mph42%29.80 "HgN/A
5:00 PM81 °FScattered clouds.8 mph42%29.80 "HgN/A
4:30 PM79 °FScattered clouds.10 mph42%29.80 "Hg6 mi
4:00 PM79 °FScattered clouds.10 mph45%29.80 "HgN/A
3:30 PM82 °FScattered clouds.10 mph37%29.77 "HgN/A
3:00 PM81 °FScattered clouds.8 mph37%29.80 "HgN/A
2:00 PM81 °FScattered clouds.8 mph39%29.83 "HgN/A
1:30 PM79 °FScattered clouds.6 mph45%29.83 "HgN/A
1:00 PM79 °FScattered clouds.8 mph45%29.83 "HgN/A
12:30 PM79 °FPassing clouds.10 mph42%29.83 "HgN/A
12:00 PM79 °FPassing clouds.8 mph45%29.83 "HgN/A
11:30 AM77 °FPassing clouds.8 mph47%29.83 "HgN/A
11:00 AM77 °FPassing clouds.10 mph47%29.83 "HgN/A
10:30 AM77 °FPassing clouds.6 mph51%29.83 "HgN/A
10:00 AM75 °FPassing clouds.8 mph54%29.83 "HgN/A
Weather by CustomWeather, © 2016

See weather overviewHow to use our weather pages